This is the latest recevied weather packets stored in our database for station/object M0JUI-1. If no packets are shown the sender has not sent any weather packets the latest 10 day(s).
| Time | Temp. | Humidity | Pressure | Rain* | Wind** | Luminosity | Snow |
|---|---|---|---|---|---|---|---|
| 1788510969 | 14.44° C | 99% | 1010.5 hPa | 0 mm | - | 71 W/m² | - |
| 1788510669 | 14.44° C | 1% | 1010.4 hPa | 0 mm | - | 111 W/m² | - |
| 1788510369 | 14.44° C | 1% | 1010.1 hPa | 0 mm | - | 102 W/m² | - |
| 1788510076 | 13.89° C | 7% | 1010.1 hPa | 0 mm | - | 111 W/m² | - |
| 1788509769 | 13.89° C | 13% | 1010.1 hPa | 0 mm | - | 113 W/m² | - |
| 1788509457 | 13.89° C | 17% | 1009.9 hPa | 0 mm | - | 95 W/m² | - |
| 1788509158 | 13.89° C | 19% | 1009.9 hPa | 0 mm | - | 96 W/m² | - |
| 1788508858 | 14.44° C | 20% | 1009.8 hPa | 0 mm | - | 92 W/m² | - |
| 1788508545 | 14.44° C | 21% | 1010 hPa | 0 mm | - | 96 W/m² | - |
| 1788508246 | 14.44° C | 21% | 1009.8 hPa | 0 mm | - | 74 W/m² | - |
| 1788507945 | 14.44° C | 22% | 1009.9 hPa | 0 mm | - | 77 W/m² | - |
| 1788507633 | 14.44° C | 22% | 1009.7 hPa | 0 mm | - | 74 W/m² | - |
| 1788507333 | 14.44° C | 23% | 1009.6 hPa | 0 mm | - | 69 W/m² | - |
| 1788507033 | 14.44° C | 23% | 1009.6 hPa | 0 mm | - | 73 W/m² | - |
| 1788506721 | 14.44° C | 23% | 1009.5 hPa | 0 mm | - | 65 W/m² | - |
| 1788506421 | 14.44° C | 23% | 1009.6 hPa | 0 mm | - | 62 W/m² | - |
| 1788506121 | 14.44° C | 24% | 1009.3 hPa | 0 mm | - | 62 W/m² | - |
| 1788505810 | 14.44° C | 24% | 1009.5 hPa | 0 mm | - | 51 W/m² | - |
| 1788505509 | 14.44° C | 24% | 1009.2 hPa | 0 mm | - | 44 W/m² | - |
| 1788505209 | 14.44° C | 24% | 1009.2 hPa | 0 mm | - | 30 W/m² | - |
| 1788504909 | 14.44° C | 24% | 1009.5 hPa | 0 mm | - | 26 W/m² | - |
| 1788504609 | 14.44° C | 24% | 1009.3 hPa | 0 mm | - | 20 W/m² | - |
| 1788504309 | 14.44° C | 24% | 1009.2 hPa | 0 mm | - | 25 W/m² | - |
| 1788504009 | 14.44° C | 24% | 1009.2 hPa | 0 mm | - | 16 W/m² | - |
| 1788503709 | 14.44° C | 24% | 1009.1 hPa | 0 mm | - | 24 W/m² | - |
* Rain latest hour (hover to see other rain measurements)
** Current wind speed in m/s (hover to see current wind gust speed)